ISS 1 25544U 98067A 01232.96099537 .00262939 00000-0 34591-2 0 3692 2 25544 51.6412 122.2860 0008371 20.1738 16.3526 15.57002722157199 ---- Via the sarex mailing list at AMSAT.ORG courtesy of AMSAT-NA. To unsubscribe, send "unsubscribe sarex" to Majordomo@amsat.org